Regional Weather Roundup
Issued by NWS Newport/Morehead, NC

Current Version | Previous Version | Graphics & Text | Print | Product List | Glossary On
Versions: 1 2 3 4 5 6 7 8 9 10 11 12 13 14 15 16 17 18 19 20 21 22 23 24 25 26 27 28 29 30 31 32 33 34 35 36 37 38 39 40 41 42 43 44 45 46 47 48 49 50
000 ASUS42 KMHX 292212 RWRMHX WEATHER ROUNDUP FOR EASTERN NORTH CAROLINA NATIONAL WEATHER SERVICE NEWPORT/MOREHEAD CITY NC 600 PM EDT SUN MAR 29 2015 NOTE: "FAIR" INDICATES FEW OR NO CLOUDS BELOW 12,000 FEET WITH NO SIGNIFICANT WEATHER AND/OR OBSTRUCTIONS TO VISIBILITY NCZ015>017-031-032-045>047-102-103-292300- NORTH COAST CITY SKY/WX TMP DP RH WIND PRES REMARKS EDENTON SUNNY 47 13 25 N6 30.31F ELIZABETH CITY SUNNY 47 10 22 NW10 30.31S KITTY HAWK CLEAR 39 19 45 E3 30.31S MANTEO SUNNY 40 22 48 E7 30.32F $$ NCZ045>047-081-094-103-104-292300- CENTRAL COAST CITY SKY/WX TMP DP RH WIND PRES REMARKS FRISCO SUNNY 42 16 34 VRB3 30.33F SWANQUARTER N/A 46 N/A N/A W10 30.27S $$ NCZ095-097-098-100-101-292300- SOUTHERN COAST CITY SKY/WX TMP DP RH WIND PRES REMARKS BEAUFORT SUNNY 48 16 27 N6 30.34R CEDAR ISLAND N/A 46 N/A N/A NW7 30.36S JACKSONVILLE SUNNY 49 12 22 W10 30.34R PINEY ISLAND CLEAR N/A N/A N/A VRB5 30.33S WILMINGTON SUNNY 52 15 23 NW8 30.34F $$ NCZ011>013-027>030-043-044-078>080-089-090>093-098-292300- COASTAL PLAIN CITY SKY/WX TMP DP RH WIND PRES REMARKS AHOSKIE SUNNY 46 13 26 CALM 30.32R CLINTON SUNNY 51 17 26 W6 30.35R ELIZABETHTOWN SUNNY 51 11 20 CALM 30.35R GOLDSBORO SUNNY 50 14 23 SW9 30.32R GREENVILLE SUNNY 50 12 22 NW7 30.33R HAVELOCK SUNNY 50 11 20 N9 30.34S KENANSVILLE SUNNY 49 11 21 SW7 30.36R KINSTON SUNNY 48 10 21 CALM 30.35R NEW BERN SUNNY 49 12 22 W6 30.34S RICHLANDS SUNNY 50 12 22 NW6 30.35R ROCKY MOUNT SUNNY 50 11 20 W6 30.32R WASHINGTON SUNNY 47 13 25 W5 30.33R WHITEVILLE SUNNY 51 11 19 NW5 30.34S $$ AMZ130-135-150-152-154-156-158-170-250-252-270-ANZ085-086-088-633-658-670-292300- MARINE OBSERVATIONS STATION/POSITION TIME TEMP WIND PRES WAVE SWELL AIR SEA DIR/SP/G HT/PER HT/PER (UTC) (F) (DEG/KT/KT) (MB) (FT/S) (FT/S) CHESAPEAKE LIGHT 2100 37 310/ 9/ 9 1026.9 64 E VA BEACH 2150 38 55 320/ 16/ 19 1025.4 5/ 5 2/ 8 DUCK 2100 37 43 50/ 7/ 9 1026.0 2 E DUCK 2111 43 N/A 3/ 6 10 NE DUCK NOT AVBL OREGON INLET 2100 38 45 20/ 8/ 11 1027.1 HATTERAS CG 2100 42 49 330/ 10/ 13 1027.5 CAPE LOOKOUT 2200 47 290/ 4/ 6 1027.0 BEAUFORT LAB 2100 48 53 330/ 4/ 11 1026.1 27 SE WRIGHTSVLE 2100 42 65 320/ 2/ 4 1029.5 5 SE WRIGHTSVLE 2100 46 57 210/ 12/ 16 1027.7 225 S CAPE HAT 2150 53 68 340/ 17/ 21 1025.9 7/ 7 41 SE CHARLESTON 2150 50 68 10/ 8/ 10 1027.7 4/ 6 3/ 6 $$

USA.gov is the U.S. government's official web portal to all federal, state and local government web resources and services.